Location: Bosserstraat
(51.2960°N, 5.7486°E)
Time: 10:19:29
(UTC+00:00)

Daily predictions for brighter satellites

Satellite Brightness Start Highest point End
(mag) Time Altitude Azimuth Time Altitude Azimuth Time Altitude Azimuth
CZ-3B R/B 4.4 19:34:47 10° W 19:59:46 72° N 20:04:55 10° E
Cosmos 1833 Rocket 4.3 19:55:10 10° WSW 20:00:30 42° NW 20:05:52 10° NNE
USA 186 4.4 20:00:05 10° SW 20:01:52 15° W 20:03:36 10° NW
SPOT 5 4.0 19:58:26 10° ESE 20:01:58 25° ENE 20:05:38 10° N
Cosmos 2098 Rocket 2.7 19:58:55 10° S 20:02:16 87° W 20:06:25 10° N
IGS 5A 3.5 19:58:10 10° SSE 20:02:19 86° ENE 20:06:30 10° NNW
ARIANE 5 R/B 3.7 19:59:44 10° SE 20:03:37 30° ENE 20:07:29 10° N
Cosmos 1782 3.2 20:03:21 10° N 20:07:16 47° ENE 20:11:08 10° SSE
Ariane Rocket 3.5 20:03:02 10° S 20:08:03 62° WSW 20:13:06 10° NNW
Landsat 7 3.9 20:04:44 10° SSE 20:09:30 89° E 20:14:18 10° NNW
Cosmos 1624 Rocket 4.5 20:05:47 10° NNW 20:10:51 48° ENE 20:15:54 10° SE
Cosmos 304 Rocket 4.1 20:06:55 10° NNW 20:11:41 66° WSW 20:16:25 10° SSE
Cosmos 2082 Rocket 3.0 20:08:02 10° SW 20:13:36 59° NW 20:19:14 10° NNE
Cosmos 220 Rocket 4.3 20:09:51 10° NNW 20:14:10 58° ENE 20:18:29 10° SE
ATLAS 3B R/B 3.9 20:11:44 10° NW 20:18:12 39° WSW 20:24:54 10° S
Cosmos 2360 Rocket 2.6 20:12:53 10° NNW 20:18:27 55° NE 20:23:55 10° SE
CZ-4C R/B 4.4 20:13:40 10° WNW 20:18:46 28° N 20:24:47 10° NE
ATLAS 2AS CENTAUR R/B 3.8 20:14:38 10° WSW 20:22:26 59° NW 20:29:58 10° NE
Cosmos 1174 4.1 20:20:58 10° NNW 20:23:49 35° NE 20:26:29 11° ESE
MetOp-B 4.2 20:20:00 10° SSE 20:25:22 88° WSW 20:30:47 10° NNW
Cosmos 1092 Rocket 4.0 20:21:20 10° S 20:27:35 78° E 20:33:56 10° NNE
ISS -1.1 20:28:40 10° SW 20:29:18 10° SW 20:29:55 10° SSW
NOSS 2-1 (C) 3.9 20:29:26 10° S 20:32:10 25° ESE 20:34:58 10° ENE
Cosmos 2151 3.3 20:28:08 10° SSW 20:32:22 70° WNW 20:36:41 10° N
ERS-2 2.7 20:29:39 10° N 20:33:16 62° WNW 20:36:51 10° SSW
Cosmos 2026 Rocket 4.0 20:30:18 10° S 20:36:36 74° E 20:42:50 10° NNE
Cosmos 1812 3.0 20:33:34 10° N 20:37:21 50° ENE 20:40:31 14° SSE
Cosmos 2084 3.8 20:33:53 10° SSW 20:37:41 39° SE 20:41:36 10° ENE
COSMOS 2455 4.1 20:34:50 11° SSE 20:38:35 20° ESE 20:42:45 10° ENE
GP-B 3.1 20:34:41 10° N 20:39:09 72° E 20:43:34 10° S
Cosmos 1980 Rocket 4.5 20:35:19 10° WNW 20:39:11 19° W 20:43:05 10° SW
Cosmos 158 Rocket 4.4 20:34:03 10° SSW 20:39:15 71° WNW 20:44:37 10° NNE
Cosmos 2333 Rocket 2.9 20:34:06 10° NNW 20:39:31 44° NE 20:44:24 12° ESE
NOSS 2-1 (D) 3.7 20:36:58 10° S 20:39:52 29° SE 20:42:51 10° ENE
Cosmos 923 Rocket 4.0 20:37:40 10° SSW 20:43:01 82° ESE 20:48:23 10° NNE
SPOT 1/Viking Rocket 3.8 20:39:10 10° S 20:44:21 71° WSW 20:49:36 10° NNW
ERS-1 Rocket 3.2 20:40:25 13° SSE 20:44:51 60° ENE 20:49:49 10° N
GEOS 3 Rocket 4.5 20:41:13 10° NE 20:46:20 54° NW 20:51:20 10° WSW
Cosmos 2322 4.4 20:41:12 10° NNW 20:46:45 46° NE 20:51:30 14° ESE
USA 245 3.6 20:42:21 10° S 20:47:04 76° WSW 20:50:49 10° NNW
SL-27 R/B 3.3 20:44:41 13° SSE 20:47:28 32° ESE 20:50:44 10° NE
Cosmos 2056 Rocket 3.6 20:46:25 10° NNW 20:51:49 88° WSW 20:56:16 15° SSE
Cosmos 2237 Rocket 4.1 20:47:30 10° NNW 20:51:49 22° NE 20:56:08 10° E
Cosmos 2322 Rocket 2.6 20:47:15 10° NW 20:52:48 59° WSW 20:57:55 12° S
Okean 3 Rocket 3.6 20:48:42 10° S 20:53:10 70° E 20:57:42 10° NNE
Cosmos 1408 Rocket 4.1 20:50:55 15° SSE 20:54:06 39° E 20:58:08 10° NNE
Meteor 1-10 Rocket 4.3 20:57:27 10° N 21:03:01 68° ENE 21:07:17 17° SSE
CARTOSAT-1 3.8 20:59:31 13° S 21:03:23 69° WSW 21:07:43 10° NNW
USA 234 3.9 20:58:44 10° E 21:05:08 58° N 21:11:32 10° WNW
Gblst 52 Del rocket 4.4 20:59:17 10° W 21:05:12 83° SSW 21:11:51 11° ESE
Spot 2 Rocket 3.8 21:03:04 12° S 21:07:48 67° WSW 21:12:55 10° NNW
Cosmos 2219 Rocket 2.5 21:04:53 10° NNW 21:10:26 57° NE 21:14:26 19° SE
Resurs 01 Rocket 3.8 21:11:29 10° SW 21:14:56 22° W 21:18:24 10° NW
Cosmos 1680 Rocket 3.8 21:11:45 10° SSW 21:17:01 73° WNW 21:22:18 10° NNE
Cosmos 2112 Rocket 4.1 21:12:12 10° SSW 21:17:30 82° WNW 21:22:48 10° NNE
Cosmos 1515 Rocket 3.5 21:13:13 10° N 21:17:41 85° E 21:20:37 21° SSE
Cosmos 1151 Rocket 4.0 21:13:33 10° NNW 21:17:43 44° W 21:21:47 10° SSW
Cosmos 1553 Rocket 4.2 21:14:57 10° NNW 21:21:00 71° W 21:26:23 13° S
Cosmos 2285 Rocket 4.3 21:15:41 10° NNW 21:21:57 60° ENE 21:26:17 20° SE
Terra 1.8 21:19:00 20° SSE 21:22:18 89° E 21:27:06 10° NNW
SL-16 R/B 3.7 21:18:21 10° NW 21:23:09 29° WSW 21:27:57 10° SSW
Cosmos 2266 Rocket 4.2 21:19:57 18° SSE 21:24:30 56° E 21:30:37 10° NNE
Cosmos 2315 Rocket 4.3 21:20:36 10° N 21:26:49 55° ENE 21:30:56 22° SE
ATLAS 5 CENTAUR R/B 2.5 21:23:11 10° NW 21:28:26 64° NE 21:33:05 18° ESE
Cosmos 2333 4.2 21:24:04 10° NNW 21:29:42 83° WSW 21:33:17 23° SSE
Cosmos 2228 Rocket 3.4 21:28:46 10° N 21:33:07 53° ENE 21:35:17 27° SE
Cosmos 1766 Rocket 4.5 21:29:07 10° SSW 21:33:21 47° WNW 21:37:36 10° N
NOSS 2-1 (E) 2.8 21:34:42 10° SW 21:37:58 87° NW 21:41:32 10° NE
COSMOS 2428 2.8 21:32:19 10° NNW 21:38:03 72° ENE 21:41:31 25° SE
SPOT 5 3.4 21:36:47 17° SSW 21:39:51 45° W 21:44:09 10° NNW
ARIANE 5 R/B 3.8 21:36:31 14° SSW 21:39:59 38° W 21:44:09 10° NNW
Cosmos 883 Rocket 4.5 21:35:28 10° N 21:41:44 79° E 21:45:47 24° SSE
Cosmos 1862 3.9 21:39:48 13° SSW 21:43:12 56° WNW 21:47:08 10° N
NOSS 3-1 (C) 4.2 21:36:21 10° NW 21:43:39 68° SW 21:49:24 23° SSE
Cosmos 292 Rocket 4.3 21:39:47 10° NNW 21:44:24 50° WSW 21:47:10 23° S
IRIDIUM 106 4.4 21:40:32 10° N 21:45:45 63° E 21:48:29 28° SSE
Cosmos 1048 Rocket 4.4 21:48:39 28° SSE 21:50:47 43° ESE 21:55:37 10° NE
S3M 4.4 21:46:47 10° NNW 21:53:05 62° W 21:57:51 18° S
Cosmos 1655 Rocket 4.1 21:54:13 16° SSW 21:59:33 79° W 22:06:00 10° N
USA 229 DEB 3.9 21:52:23 10° NW 21:59:39 79° SW 22:04:27 26° SSE
USA 229 3.9 21:52:29 10° NW 21:59:45 79° SW 22:04:33 25° SSE
COSMOS 2487 2.2 22:00:10 50° S 22:00:52 67° ESE 22:04:15 10° NNE
ALOS 2 3.9 21:59:22 21° ESE 22:01:18 29° ENE 22:05:07 10° N
Cosmos 2360 Rocket 3.5 21:57:18 10° NW 22:02:11 31° WSW 22:05:41 16° SSW
Cosmos 972 Rocket 3.9 21:59:17 25° S 22:02:21 70° ESE 22:07:17 10° NNE
Cosmos 1805 Rocket 3.6 22:02:11 35° SSE 22:03:53 63° E 22:08:17 10° NNE
Cosmos 2084 Rocket 3.6 22:03:13 10° NW 22:07:22 67° NE 22:09:17 31° ESE
CZ-4C R/B 4.0 22:03:02 10° NW 22:09:04 38° NNE 22:16:14 10° E
USA 267 3.7 22:06:00 10° ENE 22:11:59 37° SE 22:14:48 26° S
Cosmos 1980 4.0 22:08:48 10° NNW 22:14:25 58° NE 22:17:31 26° SE
Cosmos 1500 Rocket 3.9 22:11:54 23° SSW 22:14:31 62° WNW 22:18:57 10° N
NOSS 0 Rocket 3.9 22:09:17 10° NNW 22:15:35 82° ENE 22:18:54 30° SE
NOSS 3-1 (A) 4.2 22:12:49 10° NW 22:20:07 66° SW 22:25:00 28° SSE
Meteor 1-27 Rocket 4.4 22:17:02 10° NNW 22:22:29 49° W 22:25:47 23° SSW
COSMOS 2455 2.8 22:17:53 11° SW 22:23:44 88° SE 22:29:48 10° NE
Cosmos 2333 Rocket 3.0 22:18:31 10° NW 22:23:47 41° WSW 22:26:23 26° SSW
Cosmos 1452 Rocket 4.2 22:18:56 10° NW 22:23:56 46° WSW 22:26:16 28° SSW
H-2A R/B 3.9 22:20:38 10° N 22:24:47 59° WNW 22:27:05 25° SW
Lacrosse 5 3.0 22:25:50 25° ESE 22:25:50 25° ESE 22:29:12 10° ENE
Meteor 1-20 Rocket 4.2 22:23:03 32° S 22:25:47 76° E 22:31:32 10° NNE
COBE Rocket 3.7 22:26:51 39° S 22:28:35 81° WSW 22:33:21 10° NNW
NOSS 2-2 (D) 4.4 22:24:15 10° NW 22:29:10 70° NE 22:33:24 23° ESE
BREEZE-M R/B 3.3 22:27:36 10° SW 22:31:56 34° ESE 22:35:11 10° E
Cosmos 2297 Rocket 3.1 22:32:07 28° SE 22:33:12 30° ESE 22:38:04 10° NE
Cosmos 1500 3.6 22:34:31 44° ESE 22:34:52 46° E 22:38:35 10° NNE
Sich 1 3.0 22:34:10 40° SSW 22:35:41 81° W 22:40:02 10° N
Cosmos 2237 Rocket 2.2 22:31:08 10° NNW 22:36:52 76° ENE 22:39:29 33° SE
Cosmos 1244 Rocket 4.4 22:34:47 33° S 22:37:43 74° E 22:43:57 10° NNE
BREEZE-M DEB (TANK) 3.8 22:40:06 10° W 22:42:20 20° WSW 22:42:20 20° WSW
Cosmos 1470 Rocket 4.3 22:43:08 34° ESE 22:43:47 37° E 22:47:47 10° NNE
Cosmos 1633 Rocket 3.1 22:44:03 49° SSE 22:44:59 63° E 22:49:19 10° NNE
Cosmos 2227 Rocket 3.2 22:44:30 27° ESE 22:45:29 28° ESE 22:50:15 10° NE
Cosmos 1110 Rocket 4.4 22:41:05 10° NNW 22:46:17 55° WSW 22:48:10 36° SSW
USA 234 3.2 22:42:59 19° ESE 22:47:58 88° SSW 22:54:35 10° WNW
Cosmos 1331 Rocket 4.2 22:43:38 10° NNW 22:48:47 57° WSW 22:50:32 38° SSW
APEX 4.4 22:48:05 33° S 22:50:50 71° ESE 22:57:35 10° NE
Cosmos 1666 Rocket 3.5 22:50:45 49° S 22:51:57 88° E 22:56:27 10° N
Cosmos 2219 Rocket 3.4 22:49:18 10° NW 22:54:04 30° WSW 22:56:08 23° SW
Cosmos 1340 Rocket 4.0 22:54:24 28° E 22:54:32 28° E 22:57:56 10° NNE
Cosmos 1378 4.4 22:51:56 10° N 22:55:15 30° ENE 22:55:52 28° E
NOSS 2-2 (E) 4.3 22:52:26 10° NW 22:57:37 75° SW 23:00:50 33° SSE
Terra 4.2 22:58:17 10° WSW 23:00:44 14° W 23:03:13 10° NW
Spot 4 4.3 23:03:05 37° SSW 23:04:34 49° W 23:09:17 10° NNW
SL-16 R/B 2.8 23:00:49 10° NNW 23:06:22 52° NE 23:09:38 24° ESE
Meteor 1-18 Rocket 4.5 23:02:43 10° NNW 23:08:30 63° W 23:10:44 37° SSW
ATLAS 5 CENTAUR R/B 3.1 23:07:58 10° WNW 23:13:02 35° WSW 23:14:34 31° SSW
Cosmos 1862 Rocket 3.7 23:08:55 10° NNW 23:13:13 61° W 23:14:06 49° SW
SL-08 R/B 4.4 23:11:21 35° SSW 23:14:10 84° W 23:20:22 10° N
Okean 1 4.2 23:10:41 10° NNW 23:14:23 36° W 23:15:05 34° WSW
COSMOS 2428 4.2 23:17:25 10° NW 23:21:47 23° WSW 23:23:31 20° SW
NOSS 2-2 (C) 4.4 23:17:29 10° NW 23:22:36 64° SW 23:25:11 37° SSE
Meteor 2-4 Rocket 3.9 23:16:53 10° NNW 23:22:48 70° W 23:24:59 39° S
Cosmos 1666 2.5 23:26:25 73° SSW 23:26:45 89° W 23:30:38 10° N
Meteor 1-11 Rocket 4.3 23:25:58 34° SE 23:27:40 43° E 23:32:52 10° NNE
Cosmos 1703 Rocket 3.6 23:24:21 10° N 23:28:44 73° ENE 23:29:38 54° SE
PSLV R/B 4.3 23:28:33 10° NNE 23:33:08 44° E 23:34:07 39° SE
Cosmos 1709 Rocket 4.2 23:30:39 36° SSE 23:33:11 62° E 23:39:30 10° NNE
Cosmos 1992 Rocket 3.9 23:29:38 10° NNW 23:34:55 85° ENE 23:36:41 43° SSE
TSX-5 4.2 23:35:45 43° WSW 23:37:01 70° NW 23:42:04 10° NNE
ALOS 2 3.4 23:36:46 35° WSW 23:37:32 38° W 23:41:39 10° NNW
Meteor 1-5 Rocket 4.3 23:35:45 40° SSW 23:37:59 86° WNW 23:43:58 10° NNE
Cosmos 909 Rocket 4.5 23:36:15 37° S 23:38:52 58° ESE 23:46:34 10° NE
Cosmos 1745 Rocket 4.0 23:39:16 36° SSW 23:42:01 76° W 23:48:22 10° N
CZ-2D R/B 4.4 23:40:19 10° ENE 23:42:49 13° E 23:45:19 10° ESE
Cosmos 2219 3.2 23:42:23 41° SSW 23:44:27 78° ESE 23:50:15 10° NNE
Cosmos 1066 Rocket 4.3 23:40:28 10° NNW 23:46:23 81° ENE 23:48:42 39° SSE
Cosmos 1269 Rocket 4.1 23:47:42 37° SW 23:49:46 73° WNW 23:55:05 10° NNE
Meteor 1-13 Rocket 4.2 23:44:37 10° NNW 23:50:25 83° W 23:52:26 42° S
Meteor 1-23 Rocket 4.5 23:47:25 10° N 23:53:08 65° ENE 23:55:43 33° SE
Timation 1 Rocket 4.3 23:51:21 41° S 23:53:26 68° ESE 23:59:24 10° NE
Okean 1-7 3.0 23:51:30 10° NNW 23:55:43 63° W 23:56:20 55° SW
